Location: Katzenstein
(51.7484°N, 10.2155°E)
Time: 19:22:08
(UTC+00:00)

Cosmos 1500 Rocket - Pass Details

Date: 17 February 2020
Orbit: 602 x 632 km, 82.5° (Epoch: 03 April)

Event Time Altitude Azimuth Distance (km) Brightness Sun altitude
Rises 04:54:02 0° 344° (NNW) 2,935 6.9 -15.6°
Reaches altitude 10° 04:56:22 10° 338° (NNW) 2,019 6.0 -15.2°
Maximum altitude 05:00:37 44° 267° (W) 867 3.8 -14.6°
Drops below altitude 10° 05:04:48 10° 195° (SSW) 1,987 6.0 -13.9°
Sets 05:07:04 0° 189° (S) 2,883 6.9 -13.6°
